User: anonymous   Login
Location: Las Callecitas
(9.8750°N, 67.4611°W)
Time: 10:09:27
(UTC+00:00)
Language:

Cosmos 1943 Rocket - Orbit

View from above orbital plane
View from above orbital plane
View from above satellite
View from above satellite

Ground track
Ground track

The orbit data is extracted from the following two-line orbital elements,

1 19120U 88039B   24164.86285205  .00000212  00000-0  12313-3 0  9992
2 19120  71.0150 330.7057 0023720 236.8927 122.9921 14.19415629868296
Epoch (UTC): 12 June 2024 20:42:30
Eccentricity: 0.0023720
inclination: 71.0150°
perigee height: 810 km
apogee height: 844 km
right ascension of ascending node: 330.7057°
argument of perigee: 236.8927°
revolutions per day: 14.19415629
mean anomaly at epoch: 122.9921°
orbit number at epoch: 86829

The dashed part of the orbit path shows where the satellite is in the earth's shadow,  

DLR